| time (UTC) | temp F | wind direction | speed knots | gust knots | rain 1hr in | rain 24hr in | rain mn in | humidity % | barometer mb |
| 20260904224114 | 79 | 53 | 0.9 | 3.5 | 0.00 | 0.21 | 0.01 | 38 | 1023.7 |
| 20260904223628 | 80 | 55 | 2.6 | 3.5 | 0.00 | 0.21 | 0.01 | 37 | 1023.8 |
| 20260904223120 | 80 | 192 | 1.7 | 2.6 | 0.00 | 0.21 | 0.01 | 38 | 1023.8 |
| 20260904222613 | 80 | 320 | 0.0 | 2.6 | 0.00 | 0.21 | 0.01 | 39 | 1023.8 |
| 20260904222108 | 80 | 320 | 0.9 | 2.6 | 0.00 | 0.21 | 0.01 | 40 | 1023.8 |
| 20260904221621 | 80 | 333 | 0.9 | 2.6 | 0.00 | 0.21 | 0.01 | 38 | 1023.9 |
| 20260904221115 | 79 | 355 | 0.9 | 2.6 | 0.00 | 0.21 | 0.01 | 40 | 1024.0 |
| 20260904220606 | 78 | 355 | 1.7 | 2.6 | 0.00 | 0.21 | 0.01 | 41 | 1024.1 |
| 20260904220120 | 78 | 55 | 1.7 | 5.2 | 0.00 | 0.21 | 0.01 | 40 | 1024.1 |
| 20260904215613 | 78 | 46 | 2.6 | 5.2 | 0.00 | 0.21 | 0.01 | 41 | 1024.0 |
| 20260904215108 | 78 | 115 | 0.9 | 2.6 | 0.00 | 0.21 | 0.01 | 46 | 1024.1 |
| 20260904214642 | 77 | 172 | 0.9 | 2.6 | 0.00 | 0.21 | 0.01 | 44 | 1024.1 |
| 20260904214114 | 77 | 36 | 1.7 | 4.3 | 0.00 | 0.21 | 0.01 | 44 | 1024.3 |
| 20260904213608 | 76 | 53 | 2.6 | 4.3 | 0.00 | 0.21 | 0.01 | 47 | 1024.4 |
| 20260904213122 | 76 | 80 | 1.7 | 4.3 | 0.00 | 0.21 | 0.01 | 49 | 1024.6 |
| 20260904212615 | 76 | 52 | 1.7 | 3.5 | 0.00 | 0.21 | 0.01 | 49 | 1024.6 |
| 20260904212109 | 77 | 57 | 1.7 | 3.5 | 0.00 | 0.21 | 0.01 | 46 | 1024.6 |
| 20260904211602 | 77 | 56 | 2.6 | 3.5 | 0.00 | 0.21 | 0.01 | 45 | 1024.6 |
| 20260904211121 | 77 | 49 | 1.7 | 2.6 | 0.00 | 0.21 | 0.01 | 45 | 1024.6 |
| 20260904210613 | 77 | 5 | 0.9 | 1.7 | 0.00 | 0.21 | 0.01 | 46 | 1024.7 |
| 20260904210108 | 78 | 342 | 0.9 | 2.6 | 0.00 | 0.21 | 0.01 | 42 | 1024.8 |
| 20260904205620 | 78 | 34 | 0.9 | 2.6 | 0.00 | 0.21 | 0.01 | 41 | 1024.8 |
| 20260904205113 | 78 | 268 | 0.0 | 2.6 | 0.00 | 0.21 | 0.01 | 43 | 1024.9 |
| 20260904204607 | 79 | 254 | 0.9 | 2.6 | 0.00 | 0.21 | 0.01 | 40 | 1025.0 |
| 20260904204120 | 79 | 254 | 0.9 | 4.3 | 0.00 | 0.21 | 0.01 | 40 | 1025.1 |
| 20260904203614 | 80 | 217 | 1.7 | 6.1 | 0.00 | 0.21 | 0.01 | 40 | 1025.1 |
| 20260904203108 | 80 | 157 | 0.9 | 4.3 | 0.00 | 0.21 | 0.01 | 41 | 1025.1 |
| 20260904202605 | 80 | 127 | 0.9 | 3.5 | 0.00 | 0.21 | 0.01 | 40 | 1025.2 |
| 20260904202119 | 80 | 164 | 0.9 | 3.5 | 0.00 | 0.21 | 0.01 | 40 | 1025.3 |
| 20260904201612 | 79 | 144 | 1.7 | 3.5 | 0.00 | 0.21 | 0.01 | 41 | 1025.3 |
| 20260904201105 | 79 | 177 | 0.9 | 2.6 | 0.00 | 0.21 | 0.01 | 42 | 1025.4 |
| 20260904200618 | 79 | 298 | 0.9 | 3.5 | 0.00 | 0.21 | 0.01 | 41 | 1025.5 |
| 20260904200112 | 79 | 150 | 1.7 | 3.5 | 0.00 | 0.21 | 0.01 | 42 | 1025.6 |
| 20260904195626 | 79 | 146 | 0.0 | 4.3 | 0.00 | 0.21 | 0.01 | 44 | 1025.6 |
| 20260904195117 | 79 | 212 | 1.7 | 4.3 | 0.00 | 0.21 | 0.01 | 42 | 1025.6 |
| 20260904194615 | 79 | 279 | 0.9 | 7.8 | 0.00 | 0.21 | 0.01 | 41 | 1025.8 |
| 20260904194108 | 79 | 293 | 1.7 | 7.8 | 0.00 | 0.21 | 0.01 | 42 | 1025.8 |
| 20260904193602 | 79 | 139 | 0.9 | 2.6 | 0.00 | 0.21 | 0.01 | 46 | 1025.8 |
| 20260904193115 | 78 | 198 | 1.7 | 4.3 | 0.00 | 0.21 | 0.01 | 45 | 1025.9 |
| 20260904192609 | 77 | 105 | 1.7 | 7.0 | 0.00 | 0.21 | 0.01 | 45 | 1026.0 |
| 20260904192103 | 76 | 145 | 2.6 | 7.0 | 0.00 | 0.21 | 0.01 | 51 | 1025.9 |
| 20260904191615 | 75 | 41 | 2.6 | 4.3 | 0.00 | 0.21 | 0.01 | 47 | 1026.1 |
| 20260904191108 | 75 | 139 | 0.9 | 3.5 | 0.00 | 0.21 | 0.01 | 49 | 1026.2 |
| 20260904190606 | 75 | 105 | 0.9 | 2.6 | 0.00 | 0.21 | 0.01 | 50 | 1026.2 |
| 20260904190120 | 75 | 115 | 0.0 | 2.6 | 0.00 | 0.21 | 0.01 | 47 | 1026.2 |
| 20260904185613 | 75 | 138 | 0.0 | 0.9 | 0.00 | 0.21 | 0.01 | 47 | 1026.2 |
| 20260904185127 | 75 | 138 | 0.0 | 1.7 | 0.00 | 0.21 | 0.01 | 49 | 1026.3 |
| 20260904184619 | 75 | 138 | 0.9 | 3.5 | 0.00 | 0.21 | 0.01 | 46 | 1026.4 |
| 20260904184112 | 75 | 140 | 1.7 | 6.1 | 0.00 | 0.21 | 0.01 | 46 | 1026.4 |
| 20260904183606 | 75 | 29 | 2.6 | 6.1 | 0.00 | 0.21 | 0.01 | 46 | 1026.5 |
| 20260904183120 | 75 | 67 | 0.9 | 2.6 | 0.00 | 0.21 | 0.01 | 47 | 1026.6 |
| 20260904182614 | 75 | 67 | 0.9 | 7.0 | 0.00 | 0.21 | 0.01 | 47 | 1026.6 |
| 20260904182111 | 75 | 144 | 2.6 | 7.0 | 0.00 | 0.21 | 0.01 | 47 | 1026.7 |
| 20260904181605 | 76 | 128 | 3.5 | 6.1 | 0.00 | 0.21 | 0.01 | 44 | 1026.7 |
| 20260904181119 | 76 | 70 | 0.0 | 4.3 | 0.00 | 0.21 | 0.01 | 46 | 1026.7 |
| 20260904180612 | 76 | 142 | 1.7 | 4.3 | 0.00 | 0.21 | 0.01 | 44 | 1026.8 |
| 20260904180105 | 76 | 94 | 0.9 | 6.1 | 0.00 | 0.21 | 0.01 | 47 | 1026.8 |
| 20260904175620 | 76 | 141 | 1.7 | 6.1 | 0.00 | 0.21 | 0.01 | 45 | 1026.9 |
| 20260904175114 | 76 | 221 | 0.9 | 3.5 | 0.00 | 0.21 | 0.01 | 46 | 1026.8 |
| 20260904174611 | 76 | 107 | 1.7 | 2.6 | 0.00 | 0.21 | 0.01 | 49 | 1026.9 |
| 20260904174105 | 76 | 25 | 0.9 | 3.5 | 0.00 | 0.21 | 0.01 | 49 | 1026.9 |
| 20260904173639 | 76 | 35 | 1.7 | 3.5 | 0.00 | 0.21 | 0.01 | 50 | 1026.8 |
| 20260904173111 | 75 | 159 | 1.7 | 4.3 | 0.00 | 0.21 | 0.01 | 49 | 1026.9 |
| 20260904172605 | 74 | 194 | 0.9 | 4.3 | 0.00 | 0.21 | 0.01 | 47 | 1026.9 |
| 20260904172119 | 73 | 234 | 0.0 | 3.5 | 0.00 | 0.21 | 0.01 | 49 | 1026.9 |
| 20260904171633 | 73 | 53 | 2.6 | 3.5 | 0.00 | 0.21 | 0.01 | 48 | 1026.9 |
| 20260904171105 | 73 | 59 | 0.9 | 3.5 | 0.00 | 0.21 | 0.01 | 50 | 1026.9 |
| 20260904170618 | 73 | 40 | 1.7 | 3.5 | 0.00 | 0.21 | 0.01 | 49 | 1026.9 |
| 20260904170116 | 73 | 46 | 2.6 | 3.5 | 0.00 | 0.21 | 0.01 | 48 | 1027.0 |
| 20260904165609 | 73 | 46 | 0.0 | 3.5 | 0.00 | 0.21 | 0.01 | 50 | 1027.0 |
| 20260904165102 | 73 | 46 | 0.9 | 3.5 | 0.00 | 0.21 | 0.01 | 50 | 1027.1 |
| 20260904164617 | 73 | 68 | 1.7 | 5.2 | 0.00 | 0.21 | 0.01 | 51 | 1027.1 |
| 20260904164110 | 72 | 154 | 0.0 | 4.3 | 0.00 | 0.21 | 0.01 | 51 | 1027.0 |
| 20260904163604 | 72 | 57 | 1.7 | 3.5 | 0.00 | 0.21 | 0.01 | 51 | 1027.0 |
| 20260904163118 | 72 | 207 | 0.0 | 3.5 | 0.00 | 0.21 | 0.01 | 50 | 1027.2 |
| 20260904162611 | 72 | 207 | 2.6 | 3.5 | 0.00 | 0.21 | 0.01 | 51 | 1027.2 |
| 20260904162109 | 71 | 34 | 0.9 | 3.5 | 0.00 | 0.21 | 0.01 | 53 | 1027.2 |
| 20260904161642 | 71 | 123 | 0.9 | 1.7 | 0.00 | 0.21 | 0.01 | 53 | 1027.2 |
| 20260904161114 | 70 | 125 | 0.9 | 1.7 | 0.00 | 0.21 | 0.01 | 54 | 1027.1 |
| 20260904160607 | 70 | 72 | 0.9 | 1.7 | 0.00 | 0.21 | 0.01 | 53 | 1027.1 |
| 20260904160120 | 70 | 163 | 0.0 | 0.0 | 0.00 | 0.21 | 0.01 | 53 | 1027.1 |
| 20260904155634 | 71 | 163 | 0.0 | 0.9 | 0.00 | 0.21 | 0.01 | 52 | 1027.1 |
| 20260904155105 | 70 | 163 | 0.0 | 2.6 | 0.00 | 0.21 | 0.01 | 54 | 1027.1 |
| 20260904154619 | 70 | 163 | 0.9 | 2.6 | 0.00 | 0.21 | 0.01 | 53 | 1027.1 |
| 20260904154112 | 70 | 163 | 1.7 | 2.6 | 0.00 | 0.21 | 0.01 | 52 | 1027.0 |
| 20260904153607 | 70 | 163 | 0.9 | 3.5 | 0.00 | 0.21 | 0.01 | 53 | 1027.1 |
| 20260904153104 | 70 | 156 | 0.0 | 2.6 | 0.00 | 0.21 | 0.01 | 54 | 1027.1 |
| 20260904152618 | 70 | 138 | 0.9 | 2.6 | 0.00 | 0.21 | 0.01 | 56 | 1027.1 |
| 20260904152111 | 69 | 130 | 0.9 | 2.6 | 0.00 | 0.21 | 0.01 | 60 | 1027.0 |
| 20260904151605 | 69 | 31 | 1.7 | 2.6 | 0.00 | 0.21 | 0.01 | 59 | 1027.0 |
| 20260904151140 | 69 | 101 | 0.0 | 0.9 | 0.00 | 0.21 | 0.01 | 59 | 1027.0 |
| 20260904150613 | 68 | 66 | 0.0 | 1.7 | 0.00 | 0.21 | 0.01 | 61 | 1027.0 |
| 20260904150106 | 68 | 67 | 0.0 | 1.7 | 0.00 | 0.21 | 0.01 | 61 | 1027.0 |
| 20260904145620 | 67 | 67 | 0.0 | 1.7 | 0.00 | 0.21 | 0.01 | 59 | 1027.0 |
| 20260904145114 | 67 | 173 | 0.0 | 2.6 | 0.00 | 0.21 | 0.01 | 61 | 1027.0 |
| 20260904144611 | 66 | 173 | 1.7 | 2.6 | 0.00 | 0.21 | 0.01 | 62 | 1026.9 |
| 20260904144106 | 65 | 144 | 0.0 | 0.0 | 0.00 | 0.21 | 0.01 | 68 | 1026.9 |
| 20260904143619 | 64 | 105 | 0.0 | 0.0 | 0.00 | 0.21 | 0.01 | 72 | 1026.9 |
| 20260904143113 | 63 | 105 | 0.0 | 0.0 | 0.00 | 0.21 | 0.01 | 78 | 1026.9 |
| 20260904142606 | 62 | 105 | 0.0 | 0.0 | 0.00 | 0.21 | 0.01 | 79 | 1026.8 |
| 20260904142120 | 62 | 105 | 0.0 | 0.0 | 0.00 | 0.21 | 0.01 | 76 | 1026.7 |
| 20260904141634 | 61 | 105 | 0.0 | 0.0 | 0.00 | 0.21 | 0.01 | 78 | 1026.7 |
| 20260904141106 | 61 | 105 | 0.0 | 0.0 | 0.00 | 0.21 | 0.01 | 78 | 1026.6 |
| 20260904140604 | 60 | 105 | 0.0 | 0.0 | 0.00 | 0.21 | 0.01 | 82 | 1026.5 |
| 20260904140117 | 60 | 105 | 0.0 | 0.0 | 0.00 | 0.21 | 0.01 | 83 | 1026.5 |
| 20260904135611 | 59 | 105 | 0.0 | 0.0 | 0.00 | 0.21 | 0.01 | 82 | 1026.3 |
| 20260904135104 | 59 | 105 | 0.0 | 0.0 | 0.00 | 0.21 | 0.01 | 83 | 1026.2 |
| 20260904134618 | 59 | 105 | 0.0 | 0.0 | 0.01 | 0.21 | 0.01 | 82 | 1026.1 |
| 20260904134110 | 59 | 105 | 0.0 | 0.0 | 0.01 | 0.21 | 0.01 | 82 | 1026.1 |
| 20260904133604 | 59 | 105 | 0.0 | 0.0 | 0.01 | 0.21 | 0.01 | 81 | 1026.1 |
| 20260904133117 | 59 | 105 | 0.0 | 0.0 | 0.01 | 0.21 | 0.01 | 81 | 1026.1 |
| 20260904132616 | 59 | 105 | 0.0 | 0.0 | 0.01 | 0.21 | 0.01 | 82 | 1026.1 |
| 20260904132108 | 59 | 105 | 0.0 | 0.0 | 0.01 | 0.21 | 0.01 | 82 | 1026.0 |
| 20260904131602 | 59 | 105 | 0.0 | 0.0 | 0.01 | 0.21 | 0.01 | 82 | 1025.9 |
| 20260904131116 | 59 | 105 | 0.0 | 0.0 | 0.01 | 0.21 | 0.01 | 83 | 1025.7 |
| 20260904130609 | 59 | 105 | 0.0 | 0.0 | 0.01 | 0.21 | 0.01 | 83 | 1025.8 |
| 20260904130143 | 59 | 105 | 0.0 | 0.0 | 0.01 | 0.21 | 0.01 | 82 | 1025.7 |
| 20260904125616 | 59 | 105 | 0.0 | 0.0 | 0.01 | 0.21 | 0.01 | 82 | 1025.5 |
| 20260904125110 | 59 | 105 | 0.0 | 0.0 | 0.01 | 0.21 | 0.01 | 80 | 1025.5 |
| 20260904124608 | 59 | 105 | 0.0 | 0.0 | 0.00 | 0.20 | 0.00 | 81 | 1025.4 |
| 20260904124122 | 59 | 105 | 0.0 | 0.0 | 0.00 | 0.20 | 0.00 | 81 | 1025.4 |
| 20260904123615 | 59 | 105 | 0.0 | 0.0 | 0.00 | 0.20 | 0.00 | 82 | 1025.5 |
| 20260904123108 | 59 | 105 | 0.0 | 0.0 | 0.00 | 0.20 | 0.00 | 82 | 1025.4 |
| 20260904122621 | 59 | 105 | 0.0 | 0.0 | 0.00 | 0.20 | 0.00 | 81 | 1025.4 |
| 20260904122115 | 59 | 105 | 0.0 | 0.0 | 0.00 | 0.20 | 0.00 | 80 | 1025.3 |
| 20260904121629 | 59 | 105 | 0.0 | 0.0 | 0.00 | 0.20 | 0.00 | 81 | 1025.3 |
| 20260904121102 | 59 | 105 | 0.0 | 0.0 | 0.00 | 0.20 | 0.00 | 80 | 1025.2 |
| 20260904120614 | 59 | 105 | 0.0 | 0.0 | 0.00 | 0.20 | 0.00 | 80 | 1025.1 |
| 20260904120112 | 59 | 105 | 0.0 | 0.0 | 0.00 | 0.20 | 0.00 | 81 | 1025.1 |
| 20260904115625 | 59 | 105 | 0.0 | 0.0 | 0.00 | 0.20 | 0.00 | 83 | 1025.1 |
| 20260904115117 | 59 | 105 | 0.0 | 0.0 | 0.00 | 0.20 | 0.00 | 81 | 1025.0 |
| 20260904114610 | 59 | 105 | 0.0 | 0.0 | 0.00 | 0.20 | 0.00 | 81 | 1025.0 |
| 20260904114123 | 59 | 105 | 0.0 | 0.0 | 0.00 | 0.20 | 0.00 | 82 | 1024.9 |
| 20260904113617 | 59 | 105 | 0.0 | 0.0 | 0.00 | 0.20 | 0.00 | 81 | 1024.9 |
| 20260904113111 | 59 | 105 | 0.0 | 0.0 | 0.00 | 0.20 | 0.00 | 79 | 1024.9 |
| 20260904112626 | 59 | 105 | 0.0 | 0.0 | 0.00 | 0.20 | 0.00 | 80 | 1024.8 |
| 20260904112118 | 59 | 105 | 0.0 | 0.0 | 0.00 | 0.20 | 0.00 | 80 | 1024.8 |
| 20260904111632 | 59 | 105 | 0.0 | 0.0 | 0.00 | 0.20 | 0.00 | 81 | 1024.9 |
| 20260904111106 | 59 | 105 | 0.0 | 0.0 | 0.00 | 0.20 | 0.00 | 82 | 1024.9 |
| 20260904110604 | 59 | 105 | 0.0 | 0.0 | 0.00 | 0.20 | 0.00 | 80 | 1024.8 |
| 20260904110118 | 59 | 105 | 0.0 | 0.0 | 0.00 | 0.20 | 0.00 | 80 | 1024.8 |
| 20260904105612 | 59 | 105 | 0.0 | 0.0 | 0.00 | 0.20 | 0.00 | 81 | 1024.8 |
| 20260904105126 | 59 | 105 | 0.0 | 0.0 | 0.00 | 0.20 | 0.00 | 83 | 1024.7 |
| 20260904104620 | 59 | 105 | 0.0 | 0.0 | 0.00 | 0.20 | 0.00 | 82 | 1024.6 |
| 20260904104113 | 59 | 105 | 0.0 | 0.0 | 0.00 | 0.20 | 0.00 | 84 | 1024.6 |
| 20260904103607 | 59 | 105 | 0.0 | 0.0 | 0.00 | 0.20 | 0.00 | 82 | 1024.5 |
| 20260904103121 | 59 | 105 | 0.0 | 0.0 | 0.00 | 0.20 | 0.00 | 82 | 1024.5 |
| 20260904102615 | 59 | 105 | 0.0 | 0.0 | 0.00 | 0.20 | 0.00 | 81 | 1024.5 |
| 20260904102113 | 59 | 105 | 0.0 | 0.0 | 0.00 | 0.20 | 0.00 | 82 | 1024.5 |
| 20260904101607 | 59 | 105 | 0.0 | 0.0 | 0.00 | 0.20 | 0.00 | 82 | 1024.5 |
| 20260904101121 | 58 | 105 | 0.0 | 0.0 | 0.00 | 0.20 | 0.00 | 81 | 1024.5 |
| 20260904100616 | 58 | 105 | 0.0 | 0.0 | 0.00 | 0.20 | 0.00 | 82 | 1024.5 |
| 20260904100111 | 58 | 105 | 0.0 | 0.0 | 0.00 | 0.20 | 0.00 | 83 | 1024.6 |
| 20260904095605 | 58 | 105 | 0.0 | 0.0 | 0.00 | 0.20 | 0.00 | 84 | 1024.5 |
| 20260904095139 | 58 | 105 | 0.0 | 0.0 | 0.00 | 0.20 | 0.00 | 82 | 1024.5 |
| 20260904094612 | 58 | 105 | 0.0 | 0.0 | 0.00 | 0.20 | 0.00 | 82 | 1024.5 |
| 20260904094109 | 58 | 105 | 0.0 | 0.0 | 0.00 | 0.20 | 0.00 | 83 | 1024.5 |
| 20260904093604 | 58 | 105 | 0.0 | 0.0 | 0.00 | 0.20 | 0.00 | 84 | 1024.4 |
| 20260904093118 | 58 | 105 | 0.0 | 0.0 | 0.00 | 0.20 | 0.00 | 83 | 1024.4 |
| 20260904092612 | 57 | 105 | 0.0 | 0.0 | 0.00 | 0.20 | 0.00 | 82 | 1024.4 |
| 20260904092106 | 57 | 105 | 0.0 | 0.0 | 0.00 | 0.20 | 0.00 | 82 | 1024.5 |
| 20260904091637 | 57 | 105 | 0.0 | 0.0 | 0.00 | 0.20 | 0.00 | 83 | 1024.5 |
| 20260904091111 | 57 | 105 | 0.0 | 0.0 | 0.00 | 0.20 | 0.00 | 82 | 1024.6 |
| 20260904090604 | 57 | 105 | 0.0 | 0.0 | 0.00 | 0.20 | 0.00 | 83 | 1024.5 |
| 20260904085616 | 56 | 105 | 0.0 | 0.0 | 0.00 | 0.20 | 0.00 | 83 | 1024.6 |
| 20260904085111 | 56 | 105 | 0.0 | 0.0 | 0.00 | 0.20 | 0.00 | 83 | 1024.5 |
| 20260904084625 | 56 | 105 | 0.0 | 0.0 | 0.00 | 0.20 | 0.00 | 84 | 1024.5 |
| 20260904084118 | 56 | 105 | 0.0 | 0.0 | 0.00 | 0.20 | 0.00 | 84 | 1024.5 |
| 20260904083633 | 56 | 105 | 0.0 | 0.0 | 0.00 | 0.20 | 0.00 | 82 | 1024.6 |
| 20260904083106 | 56 | 105 | 0.0 | 0.0 | 0.00 | 0.20 | 0.00 | 84 | 1024.6 |
| 20260904082620 | 56 | 105 | 0.0 | 0.0 | 0.00 | 0.20 | 0.00 | 85 | 1024.6 |
| 20260904082114 | 56 | 105 | 0.0 | 0.0 | 0.00 | 0.20 | 0.00 | 84 | 1024.7 |
| 20260904081612 | 56 | 105 | 0.0 | 0.0 | 0.00 | 0.20 | 0.00 | 83 | 1024.7 |
| 20260904081106 | 56 | 105 | 0.0 | 0.0 | 0.00 | 0.20 | 0.00 | 82 | 1024.7 |
| 20260904080620 | 56 | 105 | 0.0 | 0.0 | 0.00 | 0.20 | 0.00 | 81 | 1024.6 |
| 20260904080116 | 56 | 105 | 0.0 | 0.0 | 0.00 | 0.20 | 0.00 | 83 | 1024.6 |
| 20260904075608 | 56 | 105 | 0.0 | 0.0 | 0.00 | 0.20 | 0.00 | 82 | 1024.7 |
| 20260904075122 | 56 | 105 | 0.0 | 0.0 | 0.00 | 0.20 | 0.00 | 81 | 1024.6 |
| 20260904074615 | 56 | 105 | 0.0 | 0.0 | 0.00 | 0.20 | 0.00 | 80 | 1024.7 |
| 20260904074109 | 56 | 105 | 0.0 | 0.0 | 0.00 | 0.20 | 0.00 | 81 | 1024.8 |
| 20260904073607 | 56 | 105 | 0.0 | 0.0 | 0.00 | 0.20 | 0.00 | 81 | 1024.8 |
| 20260904073103 | 56 | 105 | 0.0 | 0.0 | 0.00 | 0.20 | 0.00 | 81 | 1024.9 |
| 20260904072617 | 56 | 105 | 0.0 | 0.0 | 0.00 | 0.20 | 0.00 | 81 | 1024.9 |
| 20260904072111 | 57 | 105 | 0.0 | 0.0 | 0.00 | 0.20 | 0.00 | 81 | 1025.0 |
| 20260904071625 | 57 | 105 | 0.0 | 0.0 | 0.00 | 0.20 | 0.00 | 82 | 1024.8 |
| 20260904071139 | 57 | 105 | 0.0 | 0.0 | 0.00 | 0.20 | 0.00 | 81 | 1024.8 |
| 20260904070612 | 57 | 105 | 0.0 | 0.0 | 0.00 | 0.20 | 0.00 | 80 | 1024.9 |
| 20260904070106 | 57 | 105 | 0.0 | 0.0 | 0.00 | 0.20 | 0.00 | 80 | 1024.8 |
| 20260904065604 | 57 | 105 | 0.0 | 0.0 | 0.00 | 0.20 | 0.00 | 80 | 1024.8 |
| 20260904065118 | 58 | 105 | 0.0 | 0.0 | 0.00 | 0.20 | 0.00 | 80 | 1024.8 |
| 20260904064613 | 58 | 105 | 0.0 | 0.0 | 0.00 | 0.20 | 0.00 | 79 | 1024.8 |
| 20260904064107 | 58 | 105 | 0.0 | 0.0 | 0.00 | 0.20 | 0.00 | 80 | 1024.8 |
| 20260904063642 | 58 | 105 | 0.0 | 0.0 | 0.00 | 0.20 | 0.00 | 79 | 1024.9 |
| 20260904063114 | 58 | 105 | 0.0 | 0.0 | 0.00 | 0.20 | 0.20 | 80 | 1025.0 |
| 20260904062609 | 59 | 105 | 0.0 | 0.0 | 0.00 | 0.20 | 0.20 | 80 | 1025.0 |
| 20260904062102 | 59 | 105 | 0.0 | 0.0 | 0.00 | 0.20 | 0.20 | 79 | 1025.0 |
| 20260904061617 | 59 | 105 | 0.0 | 0.0 | 0.00 | 0.20 | 0.20 | 79 | 1025.0 |
| 20260904061115 | 59 | 105 | 0.0 | 0.0 | 0.00 | 0.20 | 0.20 | 79 | 1025.0 |
| 20260904060609 | 59 | 105 | 0.0 | 0.0 | 0.00 | 0.20 | 0.20 | 78 | 1025.0 |
| 20260904060103 | 59 | 105 | 0.0 | 0.0 | 0.00 | 0.20 | 0.20 | 78 | 1025.0 |
| 20260904055617 | 60 | 105 | 0.0 | 0.0 | 0.00 | 0.20 | 0.20 | 78 | 1025.1 |
| 20260904055110 | 60 | 105 | 0.0 | 0.0 | 0.00 | 0.20 | 0.20 | 77 | 1025.1 |
| 20260904054605 | 60 | 105 | 0.0 | 0.0 | 0.00 | 0.20 | 0.20 | 78 | 1025.2 |
| 20260904054118 | 60 | 105 | 0.0 | 0.0 | 0.00 | 0.20 | 0.20 | 79 | 1025.2 |
| 20260904053612 | 60 | 105 | 0.0 | 0.0 | 0.00 | 0.20 | 0.20 | 78 | 1025.2 |
| 20260904053110 | 60 | 105 | 0.0 | 0.0 | 0.00 | 0.20 | 0.20 | 77 | 1025.3 |
| 20260904052604 | 60 | 105 | 0.0 | 0.0 | 0.00 | 0.20 | 0.20 | 78 | 1025.3 |
| 20260904052118 | 60 | 105 | 0.0 | 0.0 | 0.00 | 0.20 | 0.20 | 78 | 1025.2 |
| 20260904051613 | 60 | 105 | 0.0 | 0.0 | 0.00 | 0.20 | 0.20 | 79 | 1025.2 |
| 20260904051107 | 61 | 105 | 0.0 | 0.0 | 0.00 | 0.20 | 0.20 | 76 | 1025.1 |
| 20260904050621 | 61 | 105 | 0.0 | 0.0 | 0.00 | 0.20 | 0.20 | 76 | 1025.2 |
| 20260904050136 | 61 | 105 | 0.0 | 0.0 | 0.00 | 0.20 | 0.20 | 76 | 1025.1 |
| 20260904045610 | 61 | 105 | 0.0 | 0.0 | 0.00 | 0.20 | 0.20 | 74 | 1025.1 |
| 20260904045108 | 62 | 105 | 0.0 | 0.0 | 0.00 | 0.20 | 0.20 | 77 | 1025.2 |
| 20260904044602 | 62 | 105 | 0.0 | 0.0 | 0.00 | 0.20 | 0.20 | 75 | 1025.2 |
| 20260904044117 | 62 | 105 | 0.0 | 0.0 | 0.00 | 0.20 | 0.20 | 74 | 1025.3 |
| 20260904043611 | 62 | 105 | 0.0 | 0.0 | 0.00 | 0.20 | 0.20 | 73 | 1025.2 |
| 20260904043105 | 63 | 105 | 0.0 | 0.0 | 0.00 | 0.20 | 0.20 | 70 | 1025.3 |
| 20260904042639 | 63 | 105 | 0.0 | 0.0 | 0.00 | 0.20 | 0.20 | 70 | 1025.4 |
| 20260904042112 | 63 | 105 | 0.0 | 0.0 | 0.00 | 0.20 | 0.20 | 72 | 1025.3 |
| 20260904041606 | 63 | 105 | 0.0 | 0.0 | 0.00 | 0.20 | 0.20 | 70 | 1025.3 |
| 20260904041104 | 63 | 105 | 0.0 | 0.0 | 0.00 | 0.20 | 0.20 | 69 | 1025.3 |
| 20260904040618 | 63 | 105 | 0.0 | 0.0 | 0.00 | 0.20 | 0.20 | 69 | 1025.3 |
| 20260904040112 | 63 | 105 | 0.0 | 0.0 | 0.00 | 0.20 | 0.20 | 68 | 1025.3 |
| 20260904035606 | 64 | 105 | 0.0 | 0.0 | 0.00 | 0.20 | 0.20 | 71 | 1025.3 |
| 20260904035120 | 64 | 105 | 0.0 | 0.0 | 0.00 | 0.20 | 0.20 | 71 | 1025.3 |
| 20260904034635 | 65 | 105 | 0.0 | 0.0 | 0.00 | 0.20 | 0.20 | 70 | 1025.1 |
| 20260904034107 | 65 | 230 | 0.0 | 0.0 | 0.00 | 0.20 | 0.20 | 69 | 1025.0 |
| 20260904033603 | 65 | 230 | 0.0 | 0.0 | 0.00 | 0.20 | 0.20 | 68 | 1025.0 |
| 20260904033116 | 66 | 230 | 0.0 | 0.0 | 0.00 | 0.20 | 0.20 | 68 | 1025.0 |
| 20260904032614 | 66 | 230 | 0.0 | 0.0 | 0.00 | 0.20 | 0.20 | 67 | 1025.0 |
| 20260904032108 | 66 | 230 | 0.0 | 0.0 | 0.00 | 0.20 | 0.20 | 65 | 1024.9 |
| 20260904031603 | 67 | 230 | 0.0 | 2.6 | 0.00 | 0.20 | 0.20 | 63 | 1024.9 |
| 20260904031117 | 67 | 230 | 0.9 | 2.6 | 0.00 | 0.20 | 0.20 | 57 | 1024.8 |
| 20260904030631 | 67 | 244 | 1.7 | 2.6 | 0.00 | 0.20 | 0.20 | 56 | 1024.8 |
| 20260904030105 | 67 | 233 | 1.7 | 3.5 | 0.00 | 0.20 | 0.20 | 57 | 1024.7 |
| 20260904025619 | 67 | 257 | 0.9 | 5.2 | 0.00 | 0.20 | 0.20 | 58 | 1024.7 |
| 20260904025134 | 66 | 238 | 1.7 | 5.2 | 0.00 | 0.20 | 0.20 | 56 | 1024.6 |
| 20260904024611 | 66 | 328 | 1.7 | 2.6 | 0.00 | 0.20 | 0.20 | 60 | 1024.5 |
| 20260904024104 | 66 | 243 | 1.7 | 3.5 | 0.00 | 0.20 | 0.20 | 61 | 1024.5 |
| 20260904023618 | 66 | 348 | 0.0 | 6.1 | 0.00 | 0.20 | 0.20 | 60 | 1024.5 |
| 20260904023132 | 66 | 291 | 1.7 | 6.1 | 0.00 | 0.20 | 0.20 | 62 | 1024.3 |
| 20260904022605 | 65 | 247 | 3.5 | 7.0 | 0.00 | 0.20 | 0.20 | 65 | 1024.2 |
| 20260904022120 | 65 | 19 | 2.6 | 9.6 | 0.00 | 0.20 | 0.20 | 64 | 1024.2 |
| 20260904021614 | 65 | 318 | 2.6 | 9.6 | 0.00 | 0.20 | 0.20 | 65 | 1024.1 |
| 20260904021107 | 64 | 350 | 2.6 | 7.8 | 0.00 | 0.20 | 0.20 | 68 | 1024.1 |
| 20260904020621 | 64 | 289 | 3.5 | 7.8 | 0.00 | 0.20 | 0.20 | 67 | 1024.1 |
| 20260904020135 | 63 | 48 | 2.6 | 7.0 | 0.00 | 0.20 | 0.20 | 69 | 1024.3 |
| 20260904015611 | 63 | 337 | 3.5 | 7.8 | 0.00 | 0.20 | 0.20 | 72 | 1024.2 |
| 20260904015106 | 63 | 5 | 0.0 | 6.1 | 0.00 | 0.20 | 0.20 | 75 | 1024.1 |
| 20260904014620 | 62 | 79 | 0.0 | 4.3 | 0.00 | 0.20 | 0.20 | 82 | 1024.1 |
| 20260904014115 | 62 | 229 | 0.0 | 1.7 | 0.00 | 0.20 | 0.20 | 85 | 1024.2 |
| 20260904013607 | 62 | 223 | 0.0 | 1.7 | 0.00 | 0.20 | 0.20 | 85 | 1024.1 |
| 20260904013102 | 62 | 5 | 0.0 | 2.6 | 0.04 | 0.20 | 0.20 | 85 | 1024.0 |
| 20260904012616 | 61 | 51 | 0.0 | 2.6 | 0.20 | 0.20 | 0.20 | 84 | 1023.9 |
| 20260904012114 | 61 | 89 | 0.0 | 3.5 | 0.20 | 0.20 | 0.20 | 85 | 1023.9 |
| 20260904011628 | 61 | 129 | 0.9 | 3.5 | 0.20 | 0.20 | 0.20 | 89 | 1023.8 |
| 20260904011142 | 61 | 227 | 0.0 | 0.0 | 0.20 | 0.20 | 0.20 | 88 | 1023.7 |
| 20260904010613 | 61 | 227 | 0.0 | 1.7 | 0.20 | 0.20 | 0.20 | 87 | 1023.6 |
| 20260904010127 | 62 | 227 | 0.0 | 2.6 | 0.20 | 0.20 | 0.20 | 86 | 1023.7 |
| 20260904005621 | 62 | 222 | 1.7 | 2.6 | 0.20 | 0.20 | 0.20 | 84 | 1023.6 |
| 20260904005115 | 63 | 302 | 0.0 | 0.9 | 0.20 | 0.20 | 0.20 | 81 | 1023.6 |
| 20260904004608 | 64 | 302 | 0.0 | 1.7 | 0.20 | 0.20 | 0.20 | 76 | 1023.6 |
| 20260904004103 | 66 | 277 | 0.9 | 2.6 | 0.20 | 0.20 | 0.20 | 73 | 1023.9 |
| 20260904003615 | 70 | 92 | 0.0 | 3.5 | 0.20 | 0.20 | 0.20 | 60 | 1023.9 |
| 20260904003114 | 74 | 98 | 1.7 | 4.3 | 0.16 | 0.16 | 0.16 | 58 | 1024.6 |
| 20260904002608 | 78 | 199 | 0.9 | 4.3 | 0.00 | 0.00 | 0.00 | 44 | 1023.7 |
| 20260904002121 | 79 | 153 | 0.0 | 0.9 | 0.00 | 0.00 | 0.00 | 34 | 1023.2 |
| 20260904001636 | 79 | 153 | 0.0 | 1.7 | 0.00 | 0.00 | 0.00 | 33 | 1023.0 |
| 20260904001110 | 80 | 126 | 0.0 | 6.1 | 0.00 | 0.00 | 0.00 | 32 | 1023.1 |
| 20260904000604 | 80 | 148 | 2.6 | 7.8 | 0.00 | 0.00 | 0.00 | 31 | 1023.0 |
| 20260904000138 | 80 | 130 | 3.5 | 7.8 | 0.00 | 0.00 | 0.00 | 31 | 1023.0 |
| 20260903235610 | 81 | 150 | 0.0 | 4.3 | 0.00 | 0.00 | 0.00 | 32 | 1023.1 |
| 20260903235109 | 80 | 192 | 1.7 | 4.3 | 0.00 | 0.00 | 0.00 | 32 | 1023.0 |
| 20260903234623 | 80 | 148 | 0.9 | 5.2 | 0.00 | 0.00 | 0.00 | 32 | 1023.0 |
| 20260903234115 | 80 | 148 | 1.7 | 5.2 | 0.00 | 0.00 | 0.00 | 31 | 1023.0 |
| 20260903233610 | 80 | 167 | 0.9 | 7.8 | 0.00 | 0.00 | 0.00 | 32 | 1023.1 |
| 20260903233103 | 80 | 30 | 2.6 | 7.8 | 0.00 | 0.00 | 0.00 | 31 | 1023.1 |
| 20260903232617 | 81 | 38 | 0.9 | 3.5 | 0.00 | 0.00 | 0.00 | 32 | 1023.1 |
| 20260903232131 | 81 | 130 | 0.9 | 2.6 | 0.00 | 0.00 | 0.00 | 31 | 1023.1 |
| 20260903231605 | 81 | 130 | 0.9 | 4.3 | 0.00 | 0.00 | 0.00 | 30 | 1023.2 |
| 20260903231117 | 81 | 130 | 0.9 | 6.1 | 0.00 | 0.00 | 0.00 | 30 | 1023.2 |
| 20260903230611 | 81 | 136 | 2.6 | 6.1 | 0.00 | 0.00 | 0.00 | 29 | 1023.2 |
| 20260903230108 | 81 | 224 | 0.9 | 2.6 | 0.00 | 0.00 | 0.00 | 30 | 1023.2 |
| 20260903225643 | 81 | 351 | 0.9 | 2.6 | 0.00 | 0.00 | 0.00 | 30 | 1023.3 |
| 20260903225115 | 81 | 153 | 0.0 | 4.3 | 0.00 | 0.00 | 0.00 | 30 | 1023.3 |
| 20260903224609 | 81 | 153 | 0.9 | 4.3 | 0.00 | 0.00 | 0.00 | 30 | 1023.3 |